[[{"header":{"parameterUnit":"m.s-1","parameterCategory":1,"la1":30.2992,"la2":30.254,"lo1":-89.0895,"lo2":-89.0443,"dy":0.0025,"dx":0.0025,"nx":19,"ny":19,"refTime":"2026-05-18T21:00:00:Z","depth":0,"parameterNumber":2,"parameterNumberName":"U-component_of_WINDS"},"data":[0,0,0,-0.7749,-0.7749,-0.7741,-0.7741,-0.7737,-0.7737,0,0,0,0,0,0,0,0,0,0,0,-0.7754,-0.7755,-0.7749,-0.7749,-0.7741,-0.7741,-0.7737,-0.7737,0,0,0,0,0,0,0,0,0,0,0,-0.7754,-0.7755,-0.7755,-0.7749,-0.7741,-0.7741,-0.7737,-0.7741,0,0,0,0,0,0,0,0,0,0,-0.7748,-0.7755,-0.7754,-0.7755,-0.7749,-0.7741,-0.7741,-0.7741,-0.7741,-0.7742,0,-0.7744,0,-0.774,-0.7737,-0.7737,0,0,0,-0.7747,-0.7755,-0.7751,-0.7755,-0.7749,-0.7742,-0.7744,-0.7741,-0.774,-0.7742,-0.7744,-0.7744,-0.774,-0.7737,-0.7737,-0.7753,-0.7753,0,0,-0.7748,-0.7755,-0.7751,-0.775,-0.7751,-0.7745,-0.7744,-0.774,-0.7743,-0.7744,-0.7744,-0.774,-0.7737,-0.7737,-0.7753,-0.7753,0,0,0,-0.775,-0.7755,-0.775,-0.7751,-0.7749,-0.7745,-0.7744,-0.7744,-0.7742,-0.7744,-0.774,-0.7737,-0.7737,-0.7752,-0.7753,-0.7768,0,0,0,-0.7751,-0.7756,-0.7751,-0.7755,-0.7749,-0.7746,-0.7747,-0.7742,-0.7741,-0.774,-0.7737,-0.7737,-0.7752,-0.7753,-0.7767,-0.7774,0,0,0,-0.7754,-0.7757,-0.7757,-0.7755,-0.7752,-0.7746,-0.7744,-0.7741,-0.7739,-0.7737,-0.7737,-0.7752,-0.7753,-0.7766,-0.7772,-0.778,0,0,0,-0.776,-0.777,-0.7757,-0.7767,-0.7752,-0.7755,-0.7743,-0.7745,-0.7745,-0.7737,-0.7752,-0.7753,-0.7766,-0.7772,-0.7779,-0.7788,-0.7792,0,0,-0.7776,-0.7772,-0.7777,-0.7766,-0.7772,-0.7756,-0.7765,-0.7758,-0.7752,-0.7753,-0.7753,-0.7767,-0.7772,-0.778,-0.7812,-0.7816,0,0,0,-0.7785,-0.7789,-0.7789,-0.7789,-0.7784,-0.778,-0.7772,-0.7769,-0.777,-0.7754,-0.7771,-0.7774,-0.7779,-0.7782,-0.7785,-0.7789,-0.7755,-0.7755,-0.7755,-0.7818,-0.7809,-0.7818,-0.7808,-0.7808,-0.7799,-0.7798,-0.7794,-0.7785,-0.7789,-0.779,-0.781,-0.7815,-0.7817,-0.7821,-0.7793,-0.7793,-0.7793,-0.7793,-0.7842,-0.7846,-0.7834,-0.7838,-0.7829,-0.7832,-0.7824,-0.7818,-0.782,-0.7809,-0.7813,-0.7802,-0.7821,-0.7824,-0.7794,-0.7794,-0.7794,-0.7794,-0.7794,-0.7863,-0.7864,-0.786,-0.7859,-0.786,-0.785,-0.7852,-0.7844,-0.7836,-0.7839,-0.7839,-0.7839,-0.7838,-0.784,-0.784,-0.784,-0.784,-0.784,-0.784,-0.7887,-0.7882,-0.7885,-0.7881,-0.788,-0.7877,-0.7868,-0.7867,-0.7864,-0.7858,-0.7858,-0.7849,-0.7824,-0.7819,-0.7841,-0.7841,-0.7841,-0.784,-0.784,-0.7915,-0.7907,-0.7911,-0.791,-0.7905,-0.7906,-0.7895,-0.7894,-0.7891,-0.7893,-0.7884,-0.7867,-0.7862,-0.7859,-0.7855,-0.7885,-0.7885,-0.7885,-0.7885,-0.7933,-0.7929,-0.7932,-0.7931,-0.7929,-0.792,-0.7926,-0.7919,-0.7911,-0.791,-0.7904,-0.7897,-0.7895,-0.7891,-0.7888,-0.7884,-0.7921,-0.7921,-0.7921,-0.795,-0.7946,-0.7953,-0.7944,-0.7939,-0.7935,-0.7941,-0.7941,-0.793,-0.7922,-0.7908,-0.7907,-0.7895,-0.7892,-0.7884,-0.7879,-0.7871,0,0]},{"header":{"parameterUnit":"m.s-1","parameterCategory":1,"la1":30.2992,"la2":30.254,"lo1":-89.0895,"lo2":-89.0443,"dy":0.0025,"dx":0.0025,"nx":19,"ny":19,"refTime":"2026-05-18T21:00:00:Z","depth":0,"parameterNumber":3,"parameterNumberName":"V-component_of_WINDS"},"data":[0,0,0,-0.0908,-0.0908,-0.0938,-0.0938,-0.0972,-0.0973,0,0,0,0,0,0,0,0,0,0,0,-0.0896,-0.0896,-0.0908,-0.0908,-0.0938,-0.0938,-0.0972,-0.0973,0,0,0,0,0,0,0,0,0,0,0,-0.0896,-0.0896,-0.0897,-0.0908,-0.0938,-0.0938,-0.0972,-0.0951,0,0,0,0,0,0,0,0,0,0,-0.0923,-0.091,-0.0896,-0.0897,-0.0908,-0.0938,-0.0938,-0.095,-0.0953,-0.0958,0,-0.0961,0,-0.0967,-0.0975,-0.0975,0,0,0,-0.091,-0.0908,-0.0918,-0.0897,-0.0909,-0.0938,-0.0925,-0.0952,-0.0954,-0.096,-0.0961,-0.0963,-0.0968,-0.0975,-0.0975,-0.0995,-0.0995,0,0,-0.0909,-0.09,-0.0917,-0.092,-0.0915,-0.0924,-0.0926,-0.0953,-0.0954,-0.0961,-0.0963,-0.0968,-0.0975,-0.0975,-0.0995,-0.0995,0,0,0,-0.0903,-0.0899,-0.0909,-0.0918,-0.0924,-0.0925,-0.0927,-0.0952,-0.0956,-0.0964,-0.0969,-0.0975,-0.0976,-0.0995,-0.0995,-0.0986,0,0,0,-0.0902,-0.0896,-0.0908,-0.0903,-0.0923,-0.0938,-0.0925,-0.0954,-0.0958,-0.0969,-0.0975,-0.0976,-0.0995,-0.0995,-0.0987,-0.0984,0,0,0,-0.0895,-0.0895,-0.0898,-0.0903,-0.0915,-0.0938,-0.0944,-0.0955,-0.0961,-0.0975,-0.0976,-0.0995,-0.0995,-0.0987,-0.0984,-0.0986,0,0,0,-0.0886,-0.089,-0.0898,-0.0905,-0.0915,-0.0932,-0.0944,-0.0957,-0.0969,-0.0976,-0.0995,-0.0995,-0.0987,-0.0984,-0.0986,-0.0986,-0.0986,0,0,-0.0887,-0.089,-0.0895,-0.0902,-0.0917,-0.0929,-0.0942,-0.096,-0.097,-0.0986,-0.0987,-0.0986,-0.0984,-0.0986,-0.0984,-0.0984,0,0,0,-0.0892,-0.0895,-0.0901,-0.0911,-0.0925,-0.0937,-0.0954,-0.0961,-0.0975,-0.0976,-0.0988,-0.0987,-0.0989,-0.0989,-0.0988,-0.099,-0.0995,-0.0995,-0.0995,-0.0881,-0.0893,-0.0901,-0.0916,-0.0926,-0.0943,-0.0952,-0.0965,-0.0974,-0.0976,-0.0981,-0.0979,-0.0979,-0.0978,-0.098,-0.0982,-0.0982,-0.0982,-0.0982,-0.0883,-0.089,-0.0901,-0.0913,-0.0926,-0.0936,-0.0954,-0.096,-0.0972,-0.0976,-0.0978,-0.0981,-0.0977,-0.098,-0.0982,-0.0982,-0.0982,-0.0982,-0.0982,-0.0877,-0.0882,-0.089,-0.0906,-0.0917,-0.0932,-0.0943,-0.0954,-0.0965,-0.0967,-0.0973,-0.0973,-0.0975,-0.0969,-0.0969,-0.0969,-0.0969,-0.0969,-0.0969,-0.0867,-0.0877,-0.0884,-0.09,-0.0908,-0.092,-0.0938,-0.0946,-0.0958,-0.0965,-0.0965,-0.0974,-0.0975,-0.0975,-0.0969,-0.0969,-0.0969,-0.0969,-0.0969,-0.0865,-0.0867,-0.0879,-0.0887,-0.0906,-0.0916,-0.093,-0.0946,-0.0954,-0.0959,-0.0968,-0.0967,-0.0971,-0.0972,-0.0972,-0.0965,-0.0965,-0.0965,-0.0965,-0.0859,-0.0863,-0.0877,-0.0889,-0.0902,-0.0916,-0.0929,-0.0943,-0.0959,-0.0965,-0.0967,-0.0968,-0.0968,-0.0973,-0.0973,-0.0973,-0.0968,-0.0968,-0.0968,-0.0858,-0.0863,-0.0872,-0.0887,-0.0902,-0.0916,-0.0929,-0.0942,-0.096,-0.0968,-0.097,-0.097,-0.0972,-0.0971,-0.0979,-0.0979,-0.098,0,0]}]]